KJ5BMY-13 Weather Reports


time (UTC)temp
F
wind
direction
speed
knots
gust
knots
rain 1hr
in
rain 24hr
in
rain mn
in
humidity
%
barometer
mb
20260506030016 71 61 0.9 1.7 0.00 0.00 0.00 73 1010.0
20260506025512 71 296 0.9 1.7 0.00 0.00 0.00 73 1009.9
20260506025009 71 293 0.0 1.7 0.00 0.00 0.00 73 1009.8
20260506024506 72 25 2.6 5.2 0.00 0.00 0.00 73 1009.7
20260506024001 72 230 0.9 1.7 0.00 0.00 0.00 72 1009.3
20260506023458 73 353 0.0 1.7 0.00 0.00 0.00 72 1009.3
20260506022955 74 210 0.0 1.7 0.00 0.00 0.00 71 1009.1
20260506022453 74 248 0.0 2.6 0.00 0.00 0.00 70 1008.9
20260506021951 74 229 0.9 1.7 0.00 0.00 0.00 70 1008.6
20260506021448 74 281 0.0 0.9 0.00 0.00 0.00 70 1008.7
20260506020945 74 337 0.0 1.7 0.00 0.00 0.00 70 1008.4
20260506020442 74 13 0.0 1.7 0.00 0.00 0.00 69 1008.3
20260506015939 74 285 0.0 0.9 0.00 0.00 0.00 69 1008.5
20260506015437 74 249 0.0 1.7 0.00 0.00 0.00 69 1008.4
20260506014934 74 259 0.0 0.9 0.00 0.00 0.00 68 1008.5
20260506014431 75 245 0.0 0.0 0.00 0.00 0.00 68 1008.5
20260506013927 75 9 1.7 3.5 0.00 0.00 0.00 67 1007.9
20260506013425 75 346 0.0 0.9 0.00 0.00 0.00 67 1007.7
20260506012921 75 285 0.0 1.7 0.00 0.00 0.00 66 1008.0
20260506012418 75 327 0.0 0.9 0.00 0.00 0.00 65 1007.9
20260506011915 75 244 0.9 1.7 0.00 0.00 0.00 66 1008.2
20260506011412 76 326 0.9 1.7 0.00 0.00 0.00 67 1007.9
20260506010909 76 234 0.0 0.9 0.00 0.00 0.00 68 1007.6
20260506010407 76 259 0.0 1.7 0.00 0.00 0.00 68 1007.7
20260506005904 78 17 0.0 1.7 0.00 0.00 0.00 67 1007.7
20260506005401 78 80 0.0 0.0 0.00 0.00 0.00 66 1007.5
20260506004856 78 350 0.0 0.9 0.00 0.00 0.00 65 1007.7
20260506004355 79 42 0.0 0.9 0.00 0.00 0.00 64 1007.5
20260506003850 79 272 0.0 0.9 0.00 0.00 0.00 64 1007.3
20260506003347 80 275 0.0 0.9 0.00 0.00 0.00 63 1007.2
20260506002843 80 302 0.0 1.7 0.00 0.00 0.00 62 1007.0
20260506002340 81 14 0.0 1.7 0.00 0.00 0.00 62 1007.3
20260506001835 81 32 0.9 0.9 0.00 0.00 0.00 62 1007.5
20260506001333 82 256 0.0 0.0 0.00 0.00 0.00 61 1007.4
20260506000829 82 265 0.9 0.9 0.00 0.00 0.00 60 1007.4
20260506000329 82 344 0.0 0.0 0.00 0.00 0.00 60 1006.8
20260505235824 83 348 0.0 2.6 0.00 0.00 0.00 59 1006.6
20260505235321 84 329 0.9 3.5 0.00 0.00 0.00 58 1006.3
20260505234818 85 215 0.0 2.6 0.00 0.00 0.00 55 1006.7
20260505234316 85 271 0.0 5.2 0.00 0.00 0.00 52 1006.6
20260505233813 85 303 0.9 1.7 0.00 0.00 0.00 51 1006.6
20260505233311 85 255 0.0 1.7 0.00 0.00 0.00 53 1006.5
20260505232808 86 12 0.9 1.7 0.00 0.00 0.00 67 1006.4
20260505232305 86 214 1.7 6.1 0.00 0.00 0.00 66 1006.1
20260505231801 86 164 3.5 5.2 0.00 0.00 0.00 66 1006.0
20260505231300 87 135 3.5 7.0 0.00 0.00 0.00 65 1005.9
20260505230758 87 97 0.9 3.5 0.00 0.00 0.00 64 1005.7
20260505230254 87 148 2.6 3.5 0.00 0.00 0.00 64 1005.7
20260505225751 88 67 1.7 3.5 0.00 0.00 0.00 63 1005.8
20260505225249 88 349 0.9 3.5 0.00 0.00 0.00 62 1005.8
20260505224743 90 99 4.3 7.0 0.00 0.00 0.00 60 1005.8
20260505224241 90 230 1.7 2.6 0.00 0.00 0.00 58 1005.7
20260505223738 90 26 1.7 2.6 0.00 0.00 0.00 56 1005.8
20260505223235 90 186 0.0 0.9 0.00 0.00 0.00 53 1005.5
20260505222731 90 95 1.7 3.5 0.00 0.00 0.00 52 1005.6
20260505222227 90 322 1.7 3.5 0.00 0.00 0.00 53 1005.4
20260505221724 90 209 0.9 1.7 0.00 0.00 0.00 53 1005.3
20260505221221 91 86 0.9 2.6 0.00 0.00 0.00 51 1005.7
20260505220718 92 95 2.6 2.6 0.00 0.00 0.00 51 1005.4
20260505220216 94 219 1.7 7.8 0.00 0.00 0.00 49 1005.6
20260505215713 93 217 0.9 2.6 0.00 0.00 0.00 50 1005.6
20260505215211 94 271 0.0 2.6 0.00 0.00 0.00 49 1005.7
20260505214708 92 94 0.0 3.5 0.00 0.00 0.00 51 1005.6
20260505214206 91 171 2.6 3.5 0.00 0.00 0.00 51 1005.8
20260505213703 92 309 0.9 2.6 0.00 0.00 0.00 51 1005.8
20260505213200 92 15 1.7 3.5 0.00 0.00 0.00 51 1005.8
20260505212656 92 193 1.7 3.5 0.00 0.00 0.00 51 1005.9
20260505212153 91 200 1.7 3.5 0.00 0.00 0.00 52 1006.0
20260505211650 93 244 2.6 5.2 0.00 0.00 0.00 51 1005.9
20260505211148 92 181 0.9 3.5 0.00 0.00 0.00 51 1006.0
20260505210644 92 251 1.7 6.1 0.00 0.00 0.00 52 1005.8
20260505210141 92 226 2.6 5.2 0.00 0.00 0.00 52 1006.1
20260505205638 91 119 1.7 6.1 0.00 0.00 0.00 54 1006.2
20260505205136 91 151 2.6 3.5 0.00 0.00 0.00 54 1006.2
20260505204633 90 227 4.3 6.1 0.00 0.00 0.00 54 1006.4
20260505204131 89 219 1.7 5.2 0.00 0.00 0.00 54 1006.3
20260505203628 90 73 2.6 7.8 0.00 0.00 0.00 54 1006.5
20260505203125 89 206 0.9 6.1 0.00 0.00 0.00 57 1006.5
20260505202620 89 190 2.6 6.1 0.00 0.00 0.00 56 1006.4
20260505202116 89 194 4.3 6.1 0.00 0.00 0.00 56 1006.5
20260505201613 92 3 2.6 3.5 0.00 0.00 0.00 55 1006.5
20260505201111 91 359 1.7 5.2 0.00 0.00 0.00 57 1006.4
20260505200609 90 263 1.7 3.5 0.00 0.00 0.00 57 1006.5
20260505200105 89 21 1.7 2.6 0.00 0.00 0.00 59 1006.4
20260505195601 89 26 0.9 3.5 0.00 0.00 0.00 59 1006.6
20260505195059 89 172 2.6 11.3 0.00 0.00 0.00 59 1006.7
20260505194556 90 165 0.9 6.1 0.00 0.00 0.00 61 1006.5
20260505194051 88 37 0.9 3.5 0.00 0.00 0.00 62 1006.8
20260505193549 88 108 1.7 7.0 0.00 0.00 0.00 62 1006.5
20260505193046 88 66 1.7 6.1 0.00 0.00 0.00 63 1006.8
20260505192544 88 170 1.7 7.8 0.00 0.00 0.00 63 1006.6
20260505192042 88 187 1.7 5.2 0.00 0.00 0.00 63 1006.9
20260505191540 87 139 2.6 6.1 0.00 0.00 0.00 64 1006.7
20260505191037 86 33 1.7 3.5 0.00 0.00 0.00 65 1007.0
20260505190532 85 134 0.9 5.2 0.00 0.00 0.00 65 1006.9
20260505190028 85 218 3.5 7.8 0.00 0.00 0.00 65 1007.0
20260505185525 85 217 2.6 6.1 0.00 0.00 0.00 65 1007.0
20260505185021 85 340 0.9 5.2 0.00 0.00 0.00 66 1007.0
20260505184518 84 36 1.7 5.2 0.00 0.00 0.00 66 1007.0
20260505184015 84 164 2.6 7.0 0.00 0.00 0.00 66 1007.0
20260505183512 85 0 3.5 7.8 0.00 0.00 0.00 66 1007.1
20260505183009 85 129 0.9 3.5 0.00 0.00 0.00 66 1007.1
20260505182506 84 218 2.6 7.0 0.00 0.00 0.00 67 1007.2
20260505182002 83 153 1.7 7.8 0.00 0.00 0.00 67 1007.1
20260505181459 84 161 3.5 5.2 0.00 0.00 0.00 66 1007.3
20260505180956 84 216 1.7 3.5 0.00 0.00 0.00 66 1007.2
20260505180452 84 170 1.7 11.3 0.00 0.00 0.00 66 1007.1
20260505175949 84 136 0.9 5.2 0.00 0.00 0.00 66 1007.1
20260505175445 84 137 1.7 6.1 0.00 0.00 0.00 66 1007.2
20260505174942 84 109 2.6 6.1 0.00 0.00 0.00 66 1007.1
20260505174439 83 83 2.6 7.8 0.00 0.00 0.00 66 1007.3
20260505173935 83 214 2.6 5.2 0.00 0.00 0.00 67 1007.2
20260505173432 84 299 1.7 5.2 0.00 0.00 0.00 65 1007.3
20260505172929 84 72 2.6 5.2 0.00 0.00 0.00 67 1007.3
20260505172427 83 199 4.3 7.8 0.00 0.00 0.00 67 1007.4
20260505171926 82 118 1.7 7.8 0.00 0.00 0.00 68 1007.2
20260505171424 82 74 0.9 5.2 0.00 0.00 0.00 68 1007.6
20260505170920 82 192 1.7 9.6 0.00 0.00 0.00 69 1007.3
20260505170417 82 159 3.5 6.1 0.00 0.00 0.00 68 1007.5
20260505165912 82 267 1.7 7.0 0.00 0.00 0.00 68 1007.6
20260505165408 82 143 0.9 7.0 0.00 0.00 0.00 69 1007.3
20260505164903 82 84 1.7 7.8 0.00 0.00 0.00 68 1007.2
20260505164400 82 219 4.3 12.2 0.00 0.00 0.00 69 1007.3
20260505163859 82 328 2.6 3.5 0.00 0.00 0.00 69 1007.4
20260505163357 82 56 1.7 7.8 0.00 0.00 0.00 68 1007.3
20260505162855 81 143 2.6 6.1 0.00 0.00 0.00 69 1007.2
20260505162351 80 246 5.2 13.0 0.00 0.00 0.00 71 1007.2
20260505161848 82 3 4.3 9.6 0.00 0.00 0.00 69 1007.1
20260505161345 81 139 7.0 8.7 0.00 0.00 0.00 69 1007.0
20260505160842 80 208 1.7 8.7 0.00 0.00 0.00 70 1007.0
20260505160341 81 284 1.7 7.0 0.00 0.00 0.00 70 1006.8
20260505153320 80 75 2.6 3.5 0.00 0.00 0.00 72 1007.1
20260505152817 80 191 3.5 5.2 0.00 0.00 0.00 72 1007.3
20260505152314 79 177 1.7 8.7 0.00 0.00 0.00 74 1007.1
20260505151813 79 48 1.7 2.6 0.00 0.00 0.00 75 1007.2
20260505151310 78 147 0.9 2.6 0.00 0.00 0.00 75 1007.2
20260505150807 77 41 2.6 6.1 0.00 0.00 0.00 76 1007.1
20260505150304 77 124 2.6 6.1 0.00 0.00 0.00 77 1007.1
20260505140229 73 183 1.7 3.5 0.00 0.00 0.00 83 1007.0
20260505130153 72 106 2.6 7.8 0.00 0.00 0.00 84 1006.9
20260505124643 72 186 0.0 2.6 0.00 0.00 0.00 85 1006.8
20260505124139 72 144 1.7 5.2 0.00 0.00 0.00 85 1006.7
20260505123635 71 211 2.6 5.2 0.00 0.00 0.00 85 1006.5
20260505123132 71 133 1.7 7.0 0.00 0.00 0.00 86 1006.6
20260505122629 71 62 0.0 3.5 0.00 0.00 0.00 86 1006.5
20260505122126 71 58 0.9 5.2 0.00 0.00 0.00 85 1006.5
20260505121622 71 139 1.7 7.8 0.00 0.00 0.00 86 1006.4
20260505121119 71 211 3.5 5.2 0.00 0.00 0.00 86 1006.5
20260505120615 71 213 3.5 6.1 0.00 0.00 0.00 86 1006.3
20260505120112 71 184 1.7 2.6 0.00 0.00 0.00 86 1006.4
20260505115606 71 17 3.5 6.1 0.00 0.00 0.00 86 1006.3
20260505115104 71 143 0.9 3.5 0.00 0.00 0.00 85 1006.4
20260505114600 71 89 1.7 3.5 0.00 0.00 0.00 85 1006.2
20260505114057 71 222 1.7 3.5 0.00 0.00 0.00 85 1006.4
20260505113553 71 174 2.6 3.5 0.00 0.00 0.00 86 1006.2
20260505113050 71 126 0.0 3.5 0.00 0.00 0.00 85 1006.0
20260505112546 71 334 2.6 2.6 0.00 0.00 0.00 85 1005.9
20260505112045 71 95 0.9 2.6 0.00 0.00 0.00 85 1005.9
20260505111538 71 175 3.5 7.8 0.00 0.00 0.00 85 1006.3
20260505111035 71 242 5.2 7.0 0.00 0.00 0.00 86 1005.9
20260505110531 71 129 1.7 6.1 0.00 0.00 0.00 86 1006.0
20260505102004 71 91 3.5 7.8 0.00 0.00 0.00 85 1006.1
20260505101501 71 154 1.7 5.2 0.00 0.00 0.00 85 1006.1
20260505100958 71 206 5.2 11.3 0.00 0.00 0.00 84 1006.1
20260505100455 71 141 1.7 3.5 0.00 0.00 0.00 84 1006.3
20260505095951 71 232 0.9 6.1 0.00 0.00 0.00 84 1006.2
20260505095448 72 350 3.5 7.8 0.00 0.00 0.00 84 1006.3
20260505094944 72 248 2.6 5.2 0.00 0.00 0.00 84 1006.2
20260505094441 72 264 1.7 5.2 0.00 0.00 0.00 84 1006.2
20260505093937 72 259 2.6 7.0 0.00 0.00 0.00 84 1006.2
20260505093434 71 6 0.0 5.2 0.00 0.00 0.00 84 1006.5
20260505092931 71 112 3.5 7.0 0.00 0.00 0.00 85 1006.4
20260505092429 71 99 3.5 5.2 0.00 0.00 0.00 85 1006.6
20260505091926 71 202 0.9 2.6 0.00 0.00 0.00 85 1006.7
20260505091424 71 191 0.9 3.5 0.00 0.00 0.00 85 1006.7
20260505090921 71 331 2.6 6.1 0.00 0.00 0.00 85 1006.7
20260505090420 71 269 0.9 7.8 0.00 0.00 0.00 85 1006.6
20260505085917 71 134 1.7 3.5 0.00 0.00 0.00 85 1006.5
20260505085415 71 72 2.6 3.5 0.00 0.00 0.00 85 1006.5
20260505084912 71 102 4.3 7.0 0.00 0.00 0.00 85 1006.4
20260505084410 71 234 1.7 3.5 0.00 0.00 0.00 85 1006.7
20260505083908 71 159 1.7 5.2 0.00 0.00 0.00 85 1006.6
20260505083405 71 128 1.7 5.2 0.00 0.00 0.00 85 1006.6
20260505082901 71 87 1.7 6.1 0.00 0.00 0.00 85 1006.6
20260505082357 71 358 5.2 7.8 0.00 0.00 0.00 85 1006.5
20260505081854 71 167 2.6 5.2 0.00 0.00 0.00 85 1006.8
20260505081351 71 100 0.9 3.5 0.00 0.00 0.00 85 1006.9
20260505080848 71 131 5.2 7.8 0.00 0.00 0.00 85 1006.6
20260505080344 71 154 1.7 5.2 0.00 0.00 0.00 84 1006.8
20260505075839 71 239 3.5 7.0 0.00 0.00 0.00 84 1006.7
20260505075336 71 177 2.6 7.8 0.00 0.00 0.00 84 1006.8
20260505074833 71 106 3.5 6.1 0.00 0.00 0.00 84 1006.9
20260505074330 71 188 1.7 13.0 0.00 0.00 0.00 83 1006.9
20260505073828 71 79 1.7 2.6 0.00 0.00 0.00 83 1007.1
20260505073326 71 165 3.5 7.8 0.00 0.00 0.00 83 1007.1
20260505072822 71 184 4.3 6.1 0.00 0.00 0.00 83 1007.0
20260505072319 72 129 3.5 7.8 0.00 0.00 0.00 82 1007.3
20260505071815 72 188 4.3 6.1 0.00 0.00 0.00 82 1007.5
20260505071311 72 242 1.7 6.1 0.00 0.00 0.00 82 1007.3
20260505070810 72 135 4.3 6.1 0.00 0.00 0.00 82 1007.4
20260505070306 72 97 3.5 5.2 0.00 0.00 0.00 81 1007.3
20260505065800 72 205 4.3 9.6 0.00 0.00 0.00 81 1007.6
20260505065258 72 122 0.9 6.1 0.00 0.00 0.00 81 1007.4
20260505064755 72 190 0.9 6.1 0.00 0.00 0.00 81 1007.6
20260505064252 72 9 2.6 7.8 0.00 0.00 0.00 80 1007.7
20260505063750 72 148 3.5 6.1 0.00 0.00 0.00 80 1007.7
20260505063246 72 186 1.7 6.1 0.00 0.00 0.00 80 1007.7
20260505062743 72 160 2.6 7.8 0.00 0.00 0.00 80 1007.5
20260505062240 72 266 1.7 3.5 0.00 0.00 0.00 80 1007.5
20260505061737 72 105 2.6 12.2 0.00 0.00 0.00 79 1007.8
20260505061235 72 146 3.5 3.5 0.00 0.00 0.00 79 1007.7
20260505060732 72 99 1.7 5.2 0.00 0.00 0.00 79 1007.8
20260505060229 72 121 2.6 7.8 0.00 0.00 0.00 78 1008.0
20260505055724 72 144 1.7 5.2 0.00 0.00 0.00 78 1008.0
20260505055221 72 248 2.6 5.2 0.00 0.00 0.00 78 1007.9
20260505054718 73 80 3.5 5.2 0.00 0.00 0.00 77 1008.2
20260505054216 73 193 1.7 8.7 0.00 0.00 0.00 77 1008.0
20260505053714 73 23 3.5 9.6 0.00 0.00 0.00 77 1008.4
20260505053210 73 134 1.7 5.2 0.00 0.00 0.00 77 1008.3
20260505052708 73 113 1.7 5.2 0.00 0.00 0.00 76 1008.2
20260505052204 73 134 1.7 3.5 0.00 0.00 0.00 76 1008.3
20260505051701 73 97 1.7 8.7 0.00 0.00 0.00 76 1008.4
20260505051159 73 220 2.6 5.2 0.00 0.00 0.00 76 1008.4
20260505050657 73 180 3.5 7.8 0.00 0.00 0.00 75 1008.4
20260505050156 73 105 1.7 9.6 0.00 0.00 0.00 75 1008.3
20260505041631 74 128 2.6 12.2 0.00 0.00 0.00 73 1008.6
20260505041128 74 200 2.6 13.0 0.00 0.00 0.00 72 1008.6
20260505040625 74 140 2.6 5.2 0.00 0.00 0.00 72 1008.7
20260505040122 74 249 2.6 6.1 0.00 0.00 0.00 72 1008.6
20260505035618 74 264 3.5 7.0 0.00 0.00 0.00 72 1008.7
20260505035115 74 128 3.5 6.1 0.00 0.00 0.00 72 1008.6
20260505034612 74 135 3.5 6.1 0.00 0.00 0.00 72 1008.4
20260505034108 74 297 0.9 2.6 0.00 0.00 0.00 71 1008.4
20260505033605 74 136 2.6 6.1 0.00 0.00 0.00 71 1008.5
20260505033104 74 139 1.7 5.2 0.00 0.00 0.00 71 1008.6
20260505032601 74 144 1.7 6.1 0.00 0.00 0.00 71 1008.6
20260505032057 74 204 2.6 5.2 0.00 0.00 0.00 71 1008.8
20260505031555 75 81 1.7 7.0 0.00 0.00 0.00 70 1008.7
20260505031051 74 207 1.7 5.2 0.00 0.00 0.00 70 1008.7
20260505030548 75 144 1.7 6.1 0.00 0.00 0.00 70 1008.5